This is the latest recevied weather packets stored in our database for station/object OM8AGG-10. If no packets are shown the sender has not sent any weather packets the latest 10 day(s).
| Time | Temp. | Humidity | Pressure | Rain* | Wind** | Luminosity | Snow |
|---|---|---|---|---|---|---|---|
| 1788172945 | 32.78° C | 28% | 1017.4 hPa | - | - | - | - |
| 1788172045 | 32.78° C | 26% | 1017.5 hPa | - | - | - | - |
| 1788171145 | 31.67° C | 26% | 1017.5 hPa | - | - | - | - |
| 1788170245 | 31.67° C | 27% | 1017.7 hPa | - | - | - | - |
| 1788169345 | 31.11° C | 29% | 1017.8 hPa | - | - | - | - |
| 1788168444 | 31.11° C | 29% | 1018 hPa | - | - | - | - |
| 1788167544 | 31.67° C | 31% | 1018.2 hPa | - | - | - | - |
| 1788166644 | 30.56° C | 33% | 1018.3 hPa | - | - | - | - |
| 1788165744 | 28.89° C | 33% | 1018.5 hPa | - | - | - | - |
| 1788164844 | 29.44° C | 37% | 1018.6 hPa | - | - | - | - |
| 1788163944 | 28.33° C | 38% | 1018.7 hPa | - | - | - | - |
| 1788163044 | 26.67° C | 45% | 1018.8 hPa | - | - | - | - |
| 1788162143 | 25° C | 49% | 1018.8 hPa | - | - | - | - |
| 1788161243 | 23.89° C | 51% | 1018.8 hPa | - | - | - | - |
| 1788160343 | 22.78° C | 56% | 1018.8 hPa | - | - | - | - |
| 1788159443 | 21.67° C | 61% | 1019 hPa | - | - | - | - |
| 1788158543 | 20.56° C | 62% | 1019.1 hPa | - | - | - | - |
| 1788157643 | 20° C | 66% | 1019.2 hPa | - | - | - | - |
| 1788156743 | 18.89° C | 71% | 1019.3 hPa | - | - | - | - |
| 1788155842 | 17.22° C | 77% | 1019.2 hPa | - | - | - | - |
| 1788154942 | 15.56° C | 88% | 1019.4 hPa | - | - | - | - |
| 1788154042 | 13.89° C | 96% | 1019.3 hPa | - | - | - | - |
| 1788153142 | 12.78° C | 100% | 1019.4 hPa | - | - | - | - |
| 1788152242 | 11.67° C | 100% | 1019.3 hPa | - | - | - | - |
| 1788151342 | 11.11° C | 100% | 1019.2 hPa | - | - | - | - |
* Rain since midnight (hover to see other rain measurements)
** Current wind speed in m/s (hover to see current wind gust speed)